sat.trackr.live / text

‹ back to catalog

ONEWEB-0054

NORAD 45158 · 2020-008AD

PAYLOAD ACTIVE UNKNOWN

§ Identity

Operator
Country
UK
Launch date
2020-02-06
Launch site
TYMSC
Launch vehicle
Mass (kg)
RCS (m²)

Purposes: comms

External: N2YO · Heavens-Above · Gunter

§ Orbital elements

Epoch: 2026-05-25T04:12:40.868064Z

Period
109.89 min
Inclination
87.8857°
Eccentricity
0.0001826
Mean motion
13.10370550 rev/d
Perigee alt
1,220.3 km
Apogee alt
1,223.1 km
Semi-major
7,599.9 km
B*
5.6977e-4
RAAN
40.8464°
Arg perigee
81.9742°
Mean anomaly
278.1593°
Rev number
30,501

§ Raw data

ONEWEB-00541 45158U 20008AD  26145.17547301  .00000212  00000+0  56977-3 0  99902 45158  87.8857  40.8464 0001826  81.9742 278.1593 13.10370550305011

JSON: /api/v1/satellites/45158 · /tle

For live sub-satellite position, see the globe view (requires WebGL).

§ Visibility from observer

Set your observer location to see the next 7 days of passes ≥ 10°. The values pass through the URL so the page stays shareable.

No JS? Fill the form by hand. The geolocation button needs JavaScript.